Regional Weather Roundup
Issued by NWS

Home | Current Version | Previous Version | Graphics & Text | Print | Product List | Glossary On
Versions: 1 2 3 4 5 6 7 8 9 10 11 12 13 14 15 16 17 18 19 20 21 22 23 24 25 26 27 28 29 30 31 32 33 34 35 36 37 38 39 40 41 42 43 44 45 46 47 48 49 50
772
ASUS43 KOAX 081510
RWRNE

WEATHER ROUNDUP FOR NEBRASKA
NATIONAL WEATHER SERVICE OMAHA NE
900 AM CST THU DEC 08 2016

NOTES: SATELLITE DATA IS BEING USED TO AUGMENT CLOUD COVER ABOVE
       12000 FEET.
       "FAIR" INDICATES FEW OR NO CLOUDS BELOW 12,000 FEET WITH NO
       SIGNIFICANT WEATHER AND/OR OBSTRUCTIONS TO VISIBILITY.

  * THESE STATIONS DO NOT REPORT WEATHER SUCH AS RAIN...SNOW OR FOG.

NEZ001>004-019>022-054>056-081600-
NEBRASKA PANHANDLE

CITY           SKY/WX    TMP DP  RH WIND       PRES   REMARKS
SCOTTSBLUFF    CLOUDY    -6 -12  75 NW12      30.53S WCI -25
ALLIANCE       CLOUDY    -8 -14  74 W5        30.51R WCI -19
CHADRON        CLOUDY     0  -8  69 W5        30.58S WCI -10
KIMBALL        CLOUDY   -11 -15  80 NW10      30.43S WCI -30
SIDNEY         CLOUDY    -9 -14  78 NW12      30.48F WCI -28
$$

NEZ057>060-069>072-079>082-081600-
SOUTHWEST NEBRASKA

CITY           SKY/WX    TMP DP  RH WIND       PRES   REMARKS
NORTH PLATTE   CLEAR      3  -3  76 W7        30.62R WCI  -9
IMPERIAL       CLOUDY    -1  -9  68 NW9       30.57S WCI -16
LEXINGTON      CLEAR      7  -1  69 NW15      30.62R WCI -11
MCCOOK         CLOUDY    -1  -7  75 W8        30.65R WCI -15
OGALLALA       CLEAR      4  -4  69 NW17      30.57R WCI -16
$$

NEZ005>010-023>029-035>040-094-081600-
NORTH CENTRAL NEBRASKA

CITY           SKY/WX    TMP DP  RH WIND       PRES   REMARKS
VALENTINE      CLEAR      4  -5  66 NW9       30.60S WCI -10
AINSWORTH      CLEAR      5  -2  73 NW14      30.59R WCI -12
BROKEN BOW     CLEAR      8  -2  63 NW20G26   30.58R WCI -11
O`NEILL        CLEAR      8   1  70 NW22      30.59R WCI -12
ORD            CLEAR      9  -2  61 NW17      30.60R WCI  -9
THEDFORD       PTCLDY     5  -2  72 NW14      30.59R WCI -13
$$

NEZ041-046>049-061>064-073>077-083>087-081600-
SOUTH CENTRAL NEBRASKA

CITY           SKY/WX    TMP DP  RH WIND       PRES   REMARKS
GRAND ISLAND   SUNNY     10   1  67 NW16      30.62R WCI  -7
AURORA         SUNNY     10   1  65 NW21G26   30.62R WCI  -9
HASTINGS       SUNNY     10   0  63 NW16      30.63R WCI  -7
HEBRON         SUNNY     12   4  68 NW12G17   30.65R WCI  -2
HOLDREGE       SUNNY      8  -1  66 NW13G20   30.61R WCI  -7
KEARNEY *      SUNNY      9  -2  61 N10       30.63R WCI  -6
YORK           SUNNY     10   1  67 NW20      30.61R WCI  -8
$$

NEZ011>018-030>034-042>045-081600-
NORTHEAST NEBRASKA

CITY           SKY/WX    TMP DP  RH WIND       PRES   REMARKS
NORFOLK        SUNNY     10   1  67 NW20      30.58R WCI  -9
ALBION         SUNNY      9   1  67 NW20G25   30.59R WCI -10
BLAIR          SUNNY     12   5  74 NW16G23   30.56R WCI  -5
FREMONT        SUNNY     12   5  72 NW21G26   30.60R WCI  -6
TEKAMAH        SUNNY     13   4  67 NW23      30.60R WCI  -6
WAYNE          SUNNY     11   4  72 NW21G30   30.57R WCI  -8
$$

NEZ050>053-065>068-078-088>093-081600-
SOUTHEAST NEBRASKA

CITY           SKY/WX    TMP DP  RH WIND       PRES   REMARKS
LINCOLN        SUNNY     13   2  61 NW21G26   30.64R WCI  -5
OMAHA EPPLEY   MOSUNNY   14   4  64 NW16      30.60R WCI  -2
BEATRICE       SUNNY     14   4  66 NW16      30.63R WCI  -2
FALLS CITY     SUNNY     14   4  64 NW18G24   30.61R WCI  -3
NEBRASKA CITY  SUNNY     13   1  58 NW16G23   30.60R WCI  -3
PLATTSMOUTH    MOSUNNY   13   3  63 NW15G23   30.59R WCI  -3
$$

NEZ044-045-051>053-067-081600-
OMAHA AREA

CITY           SKY/WX    TMP DP  RH WIND       PRES   REMARKS
OMAHA EPPLEY   MOSUNNY   14   4  64 NW16      30.60R WCI  -2
BLAIR          SUNNY     12   5  74 NW16G23   30.56R WCI  -5
FREMONT        SUNNY     12   5  72 NW21G26   30.60R WCI  -6
MILLARD        SUNNY     14   4  65 NW13G25   30.60R WCI  -1
OFFUTT AFB     SUNNY     13   4  66 NW17      30.60R WCI  -3
PLATTSMOUTH    MOSUNNY   13   3  63 NW15G23   30.59R WCI  -3
WAHOO          FAIR      13   4  67 NW17G24   30.61R WCI  -4
$$




USA.gov is the U.S. government's official web portal to all federal, state and local government web resources and services.